EW9945 Weather Reports


time (UTC)temp
F
wind
direction
speed
knots
gust
knots
rain 1hr
in
rain 24hr
in
rain mn
in
humidity
%
barometer
mb
20260902041503 68 11 0.0 0.0 0.00 0.03 0.02 92 1015.2
20260902040001 69 11 0.0 0.0 0.00 0.03 0.02 92 1015.1
20260902034502 69 11 0.0 0.0 0.00 0.03 0.02 92 1015.1
20260902033001 69 11 0.0 0.0 0.00 0.03 0.02 92 1015.0
20260902024600 69 11 0.0 0.0 0.00 0.03 0.02 90 1015.0
20260902023109 70 360 0.0 0.0 0.00 0.03 0.02 91 1015.2
20260902020057 70 360 0.0 0.0 0.00 0.03 0.02 90 1015.0
20260902014556 70 360 0.0 0.0 0.00 0.03 0.02 90 1015.1
20260902013057 71 30 0.0 0.0 0.00 0.03 0.02 89 1014.8
20260902010054 72 30 0.0 0.0 0.00 0.03 0.02 87 1014.5
20260902004554 72 30 0.0 0.0 0.00 0.03 0.02 86 1014.3
20260902003054 72 30 0.0 0.0 0.00 0.03 0.02 87 1014.4
20260902000057 74 5 0.0 0.0 0.00 0.03 0.02 86 1013.9
20260901234551 75 5 0.0 0.0 0.00 0.03 0.02 87 1013.5
20260901233055 75 5 0.0 0.0 0.00 0.03 0.02 86 1013.0
20260901230052 76 5 0.0 2.6 0.00 0.03 0.02 84 1013.1
20260901224551 77 13 0.0 2.6 0.01 0.03 0.02 83 1013.5
20260901223053 78 15 0.0 4.3 0.01 0.03 0.02 84 1013.1
20260901220055 80 57 0.0 0.0 0.01 0.03 0.02 78 1013.2
20260901214550 82 60 0.0 0.9 0.00 0.02 0.01 74 1012.8
20260901213049 84 41 0.0 1.7 0.00 0.02 0.01 69 1013.1
20260901210050 87 306 6.1 11.3 0.00 0.02 0.01 62 1012.3
20260901204546 87 301 5.2 9.6 0.00 0.02 0.01 62 1012.3
20260901203045 85 306 0.9 7.8 0.00 0.02 0.01 65 1012.3
20260901200041 85 303 0.0 4.3 0.00 0.02 0.01 67 1012.7
20260901194538 84 302 3.5 7.0 0.00 0.02 0.01 67 1012.7
20260901193037 85 296 0.9 4.3 0.00 0.02 0.01 66 1013.0
20260901190035 83 302 0.0 1.7 0.00 0.02 0.01 72 1013.1
20260901184541 84 303 0.9 4.3 0.00 0.02 0.01 68 1013.3
20260901183044 83 304 0.0 4.3 0.00 0.02 0.01 71 1013.4
20260901180032 84 315 0.0 4.3 0.00 0.02 0.01 70 1013.4
20260901174531 83 316 0.0 3.5 0.00 0.02 0.01 71 1013.4
20260901173031 83 301 1.7 5.2 0.00 0.02 0.01 71 1013.3
20260901170028 82 303 1.7 13.0 0.00 0.02 0.01 71 1013.3
20260901164538 81 305 0.0 0.9 0.00 0.02 0.01 75 1013.4
20260901163024 81 303 3.5 7.0 0.00 0.02 0.01 74 1013.5
20260901160018 79 280 0.0 7.8 0.00 0.02 0.01 78 1013.5
20260901154516 79 288 0.0 5.2 0.00 0.02 0.01 79 1013.7
20260901153016 79 306 0.0 4.3 0.00 0.02 0.01 78 1013.6
20260901150011 78 151 0.0 2.6 0.00 0.03 0.01 81 1013.9
20260901144506 76 154 0.0 1.7 0.00 0.03 0.01 83 1013.9
20260901143006 76 154 0.0 3.5 0.00 0.03 0.01 83 1014.0
20260901140002 75 150 0.0 5.2 0.00 0.03 0.01 83 1014.2
20260901134559 74 152 0.0 3.5 0.00 0.03 0.01 87 1014.0
20260901133055 73 152 0.0 3.5 0.00 0.03 0.01 88 1014.1
20260901130059 71 152 0.9 3.5 0.01 0.03 0.01 89 1014.2
20260901124550 71 152 0.0 2.6 0.01 0.03 0.01 90 1014.4
20260901123050 71 153 0.0 3.5 0.01 0.03 0.01 90 1014.7
20260901120047 71 148 0.0 3.5 0.00 0.02 0.00 91 1014.5
20260901114618 70 146 0.0 2.6 0.00 0.02 0.00 91 1014.6
20260901113046 70 146 0.0 1.7 0.00 0.02 0.00 91 1014.6
20260901110044 70 146 0.0 0.9 0.00 0.02 0.00 91 1014.4
20260901104543 70 146 0.0 1.7 0.00 0.02 0.00 92 1014.5
20260901103042 70 146 0.0 2.6 0.00 0.02 0.00 92 1014.5
20260901100042 70 146 0.0 3.5 0.00 0.02 0.00 92 1014.4
20260901094542 70 146 0.0 1.7 0.00 0.02 0.00 92 1014.7
20260901093038 69 145 0.0 6.1 0.00 0.02 0.00 93 1014.6
20260901090038 69 146 0.0 0.0 0.00 0.02 0.02 93 1014.8
20260901084540 68 146 0.0 0.0 0.00 0.02 0.02 93 1014.7
20260901083034 68 145 0.0 0.0 0.00 0.02 0.02 93 1014.9
20260901080032 68 146 0.0 0.0 0.00 0.02 0.02 93 1015.1
20260901074531 68 146 0.0 0.0 0.00 0.02 0.02 93 1015.1
20260901073030 68 146 0.0 2.6 0.00 0.02 0.02 93 1015.2
20260901070027 68 146 0.0 0.0 0.00 0.02 0.02 93 1015.6
20260901064525 68 146 0.0 0.0 0.00 0.02 0.02 92 1015.8
20260901063027 68 145 0.0 0.0 0.00 0.02 0.02 92 1015.8
20260901060025 68 146 0.0 0.0 0.00 0.02 0.02 92 1016.0
20260901054524 68 146 0.0 0.0 0.00 0.02 0.02 92 1016.0
20260901053024 68 145 0.0 0.0 0.00 0.02 0.02 92 1016.1
20260901050024 68 146 0.0 0.0 0.01 0.02 0.02 92 1016.3
20260901044536 68 146 0.0 0.0 0.01 0.02 0.02 92 1016.3
20260901043020 68 146 0.0 0.0 0.01 0.02 0.02 92 1016.1